Wind_Speed
31 31 32 32 32 32 32 32 32 33 33 34 35 36 36 37 37 37 38 38 38 39 39 39 39 39 39 39 39 40 40 41 42 42 42 42 42 42 43 43 43 44 45
32 32 32 32 33 33 32 32 32 33 33 34 35 35 36 36 36 37 37 38 38 39 39 38 39 40 40 40 40 41 41 41 42 43 43 43 43 43 44 44 45 45 46
32 32 32 32 33 33 33 33 33 33 34 34 34 35 36 36 36 36 37 37 37 38 39 38 39 40 39 40 42 42 42 42 43 44 44 45 45 45 45 46 46 47 47
31 32 32 33 33 34 34 34 35 34 34 34 34 35 36 36 36 36 37 37 37 37 38 38 39 40 40 41 42 43 43 44 44 45 46 46 46 47 47 47 48 49 49
31 32 32 33 33 34 35 35 35 35 35 35 35 35 36 36 36 37 37 37 38 38 38 38 39 40 40 41 43 44 44 44 45 45 46 47 48 48 49 48 48 49 50
31 31 32 32 33 33 34 35 36 36 36 35 36 36 36 36 37 38 38 38 39 38 38 38 39 40 40 41 42 44 45 45 45 46 47 47 48 49 50 49 49 50 50
31 31 31 32 32 32 33 34 34 35 35 35 36 37 37 37 38 38 38 38 38 38 38 38 38 39 39 40 41 43 44 45 46 46 47 47 47 48 49 49 49 48 48
31 31 31 31 32 32 32 33 33 34 34 35 36 37 37 37 38 39 39 39 39 39 40 39 39 40 41 40 41 42 44 46 46 47 47 48 48 49 49 49 49 48 48
30 31 30 30 31 31 31 32 32 33 35 36 36 36 37 38 38 39 39 39 40 40 40 41 41 41 42 43 43 44 44 45 45 46 47 47 48 49 49 49 49 49 48
30 30 30 30 31 30 31 32 32 32 33 35 35 36 36 37 37 38 39 40 40 40 40 40 42 42 43 44 44 44 45 45 45 45 45 46 47 48 49 50 50 49 49
30 30 30 31 31 30 31 31 32 32 33 34 35 36 36 36 37 38 38 39 40 41 41 41 41 42 43 45 46 46 46 46 46 46 46 47 48 48 49 49 49 49 49
30 30 30 30 31 30 30 31 32 32 32 33 34 35 35 35 36 37 37 38 39 40 41 42 42 42 44 45 46 46 45 46 46 46 46 47 47 46 46 47 47 47 47
29 29 29 30 31 30 30 31 31 32 32 32 32 34 34 35 35 36 37 38 38 39 39 41 42 43 43 44 44 44 44 44 44 44 45 45 46 45 45 45 46 46 46
29 29 29 30 30 30 29 30 29 30 30 30 31 32 33 34 35 36 37 38 38 38 38 39 40 42 42 43 43 42 42 42 42 43 43 43 43 43 43 44 44 44 45
29 30 30 30 30 30 29 28 29 30 30 31 31 32 33 34 36 36 37 38 38 38 38 39 39 40 40 40 40 41 41 41 41 41 41 41 42 42 43 42 42 42 43
28 29 30 30 30 30 30 30 30 30 31 31 31 32 33 34 35 36 36 37 38 38 38 38 38 38 38 38 38 38 39 39 39 39 40 40 40 41 41 41 42 42 42
29 29 29 29 29 30 30 30 30 30 30 30 30 31 32 32 33 34 35 36 37 37 37 37 38 38 38 37 37 37 37 37 38 38 38 39 39 39 40 40 41 41 41
29 30 30 30 29 30 30 30 30 30 30 30 31 31 31 31 32 33 34 34 35 35 36 36 36 36 35 35 35 36 36 36 36 37 37 38 38 38 39 39 40 40 40
29 30 30 30 30 29 29 29 30 29 29 30 30 30 31 31 32 32 32 33 33 33 33 34 34 34 34 34 35 35 35 35 35 35 35 36 36 37 38 38 38 38 38
28 29 29 30 30 29 29 29 29 29 29 29 30 30 31 31 31 31 30 31 31 32 32 32 32 33 33 33 33 34 34 34 34 34 34 34 35 35 35 36 36 36 36
27 28 29 29 29 29 28 28 28 28 29 30 30 30 30 30 30 29 29 29 30 30 30 30 30 31 31 31 31 31 32 32 32 32 32 32 33 33 33 33 33 33 33
27 28 29 29 28 28 28 28 28 29 29 29 30 29 29 29 29 29 29 29 30 30 29 29 29 29 29 30 30 30 31 31 30 30 30 30 31 31 31 31 31 30 30
27 27 27 28 28 28 28 28 29 28 28 28 28 28 28 28 28 28 29 30 30 30 29 29 28 28 28 28 28 28 28 29 29 29 28 29 29 29 29 29 29 29 29
26 27 27 27 27 28 28 28 27 27 28 28 28 28 27 27 28 28 29 29 29 28 28 28 28 28 28 27 27 27 27 27 27 28 28 28 28 28 27 28 28 29 28
26 26 27 27 27 27 27 27 27 27 27 27 27 27 27 27 28 28 28 28 28 28 28 28 28 28 27 27 26 26 26 26 27 27 27 27 27 28 28 29 29 28 28
26 26 26 27 27 26 27 27 27 27 26 26 26 26 27 27 28 28 28 28 27 27 27 27 27 27 26 26 26 26 26 26 26 26 25 25 26 26 26 26 26 26 26
Wind_Direction
260 260 261 262 263 263 262 261 260 259 259 258 258 258 258 259 258 259 260 261 261 262 261 260 261 262 262 263 263 262 261 261 262 261 261 262 263 264 264 265 266 268 268
260 261 261 262 262 262 262 261 260 259 259 259 259 258 257 258 259 259 260 261 261 261 262 260 261 262 262 263 263 262 263 263 263 263 262 263 264 264 265 266 268 268 268
261 262 263 263 263 263 263 262 261 260 261 261 260 259 258 258 259 259 260 260 261 262 262 262 262 262 263 263 263 264 264 265 264 264 264 265 265 266 267 268 268 268 268
261 262 264 264 264 264 264 263 262 262 261 261 261 260 259 259 259 260 260 260 262 263 263 263 263 264 264 265 266 266 265 265 266 266 266 266 267 268 268 269 268 268 269
264 264 264 266 266 266 265 263 263 262 261 261 261 261 260 260 260 260 260 262 262 263 264 265 265 266 267 267 267 267 267 266 266 267 268 268 268 268 269 269 269 269 269
266 266 266 267 267 267 266 265 264 263 261 261 261 262 261 261 261 261 261 262 263 264 266 267 268 267 267 268 268 267 268 267 267 268 269 269 269 269 269 269 269 269 269
266 267 268 268 268 267 266 265 265 263 262 262 262 262 262 262 262 262 263 263 263 264 265 266 268 268 268 269 269 269 269 269 269 268 269 270 270 270 270 269 270 270 269
266 267 267 268 268 268 267 267 266 264 263 263 264 263 263 263 263 263 264 264 264 264 265 266 267 266 268 270 272 271 271 270 270 269 269 270 271 271 270 270 270 270 270
269 268 267 268 269 268 267 268 266 265 264 264 264 264 265 265 265 264 264 264 264 265 266 267 268 269 270 271 272 273 274 272 270 270 270 271 271 270 270 270 271 270 270
269 267 267 268 269 267 268 269 267 266 266 266 265 265 266 266 266 267 266 264 264 266 268 270 271 271 272 272 272 274 274 273 272 270 270 271 271 271 270 270 271 271 271
270 268 268 268 268 268 268 269 268 266 265 265 266 266 267 266 267 269 268 267 266 267 269 271 270 271 272 273 272 274 274 273 271 270 270 270 271 271 271 271 272 271 271
269 268 268 268 268 269 269 270 269 266 265 266 266 267 268 268 269 269 268 268 270 270 271 272 271 273 275 275 274 274 274 273 271 271 271 271 272 272 272 272 271 270 270
269 269 268 268 269 270 270 270 269 267 267 267 268 268 268 267 268 269 268 269 270 271 272 273 274 275 276 276 274 273 274 273 271 271 271 271 272 272 272 272 271 270 270
268 268 268 268 269 270 269 269 268 268 268 269 270 269 269 268 267 268 269 270 272 273 274 276 276 276 276 276 275 274 274 273 272 272 272 272 272 271 271 271 271 271 270
267 267 268 269 270 269 268 267 269 269 270 271 271 270 271 270 269 270 270 272 273 274 275 277 277 277 278 278 278 276 275 274 274 273 273 272 272 272 271 271 271 271 271
268 268 268 270 271 271 269 267 269 270 271 272 272 273 272 272 271 272 272 274 275 275 276 277 278 279 280 280 279 278 277 275 274 274 273 273 273 272 271 271 271 271 270
267 269 269 270 270 270 269 269 270 271 272 273 273 273 274 273 273 274 274 276 276 276 277 278 279 280 280 279 279 278 277 275 274 275 274 274 274 273 272 271 271 271 270
267 269 269 269 269 270 270 271 272 273 274 276 276 275 275 275 275 276 277 278 279 278 278 278 279 279 279 279 278 277 276 275 276 275 274 273 273 273 272 272 272 271 270
268 268 268 268 269 271 271 271 273 274 276 278 276 275 276 276 277 277 278 279 281 281 281 281 280 279 278 277 276 276 275 275 276 276 276 274 274 273 273 273 273 271 270
267 268 268 268 269 271 272 272 273 274 275 277 277 276 277 277 278 279 279 281 281 281 281 280 280 279 278 277 277 276 276 277 278 278 277 276 275 274 274 275 274 272 271
266 266 267 268 269 270 272 273 274 274 275 276 278 278 278 279 280 280 281 282 282 282 282 281 280 280 279 278 278 277 278 278 278 278 277 277 276 276 275 275 274 273 272
264 265 266 267 268 269 271 273 273 274 274 275 277 277 277 278 278 280 281 282 282 283 283 282 282 282 281 280 279 279 279 279 278 278 277 276 276 275 274 274 275 274 273
265 265 266 266 267 267 270 273 274 274 274 275 276 276 277 278 279 280 282 283 283 283 283 283 283 282 282 281 280 279 279 279 279 279 278 276 275 274 274 275 275 274 273
266 266 266 267 268 268 269 272 273 274 274 275 276 277 277 278 279 281 282 283 283 283 283 282 282 283 283 283 282 281 281 280 280 280 278 277 275 274 274 274 274 274 274
267 267 267 267 269 268 268 269 270 272 273 275 276 276 277 279 280 282 284 285 284 283 283 283 282 282 281 282 283 282 281 280 280 280 279 276 275 275 273 274 274 274 273
266 267 267 266 266 267 266 267 269 271 273 274 274 275 277 280 282 283 283 284 283 282 283 282 281 280 280 281 282 282 280 279 279 279 279 278 277 276 275 275 275 275 274
Height
5718 5719 5719 5720 5720 5720 5720 5721 5721 5722 5722 5723 5724 5725 5726 5727 5728 5729 5730 5731 5731 5732 5733 5734 5735 5736 5737 5738 5738 5739 5740 5740 5741 5742 5743 5744 5744 5744 5744 5744 5744 5744 5743
5709 5710 5710 5710 5711 5711 5711 5712 5712 5713 5713 5714 5714 5715 5717 5718 5719 5720 5721 5721 5722 5723 5723 5725 5726 5727 5728 5728 5729 5729 5730 5730 5731 5732 5732 5733 5734 5734 5734 5734 5733 5733 5732
5700 5701 5701 5701 5701 5702 5702 5703 5703 5703 5704 5704 5705 5706 5707 5708 5710 5711 5712 5712 5713 5714 5715 5716 5716 5717 5718 5719 5719 5719 5720 5720 5720 5720 5721 5721 5722 5723 5723 5723 5722 5722 5721
5691 5691 5692 5692 5692 5692 5692 5693 5693 5694 5694 5695 5695 5696 5697 5699 5701 5702 5703 5703 5704 5705 5706 5706 5707 5707 5708 5708 5708 5709 5709 5709 5709 5709 5709 5710 5710 5710 5711 5711 5710 5710 5709
5682 5683 5683 5683 5683 5683 5683 5683 5683 5684 5684 5685 5686 5687 5688 5689 5691 5692 5693 5694 5695 5696 5696 5697 5697 5697 5698 5698 5698 5697 5697 5697 5697 5697 5697 5697 5697 5697 5698 5699 5699 5698 5697
5673 5673 5674 5673 5673 5673 5673 5673 5673 5674 5675 5676 5676 5677 5679 5680 5681 5682 5683 5684 5685 5686 5687 5687 5687 5687 5687 5687 5686 5685 5685 5685 5685 5685 5685 5685 5685 5685 5685 5686 5686 5686 5685
5664 5664 5664 5664 5664 5663 5663 5663 5663 5664 5665 5666 5667 5668 5669 5670 5671 5672 5674 5675 5675 5676 5677 5677 5677 5677 5677 5676 5675 5674 5674 5673 5673 5673 5673 5673 5673 5673 5672 5673 5673 5673 5673
5656 5655 5655 5655 5654 5654 5653 5653 5654 5654 5655 5656 5657 5658 5659 5660 5661 5662 5663 5664 5665 5666 5666 5666 5666 5666 5666 5665 5664 5663 5662 5662 5661 5661 5661 5661 5661 5660 5660 5660 5659 5660 5660
5647 5646 5646 5646 5646 5646 5645 5645 5644 5645 5645 5646 5647 5648 5649 5650 5651 5652 5653 5654 5654 5655 5655 5655 5655 5655 5655 5654 5653 5652 5651 5650 5649 5649 5649 5648 5648 5648 5647 5646 5646 5646 5647
5638 5638 5637 5637 5637 5637 5636 5636 5635 5635 5636 5637 5638 5639 5640 5640 5641 5642 5642 5643 5644 5644 5644 5645 5644 5644 5643 5642 5641 5640 5639 5638 5636 5636 5636 5636 5635 5635 5634 5633 5632 5632 5632
5630 5629 5629 5629 5628 5628 5627 5627 5626 5626 5627 5627 5628 5629 5630 5630 5631 5632 5632 5632 5633 5634 5634 5633 5633 5632 5632 5630 5629 5628 5626 5625 5624 5624 5623 5623 5623 5622 5621 5620 5619 5619 5618
5621 5621 5621 5620 5620 5619 5618 5618 5618 5617 5618 5618 5619 5619 5620 5621 5621 5622 5622 5622 5623 5623 5623 5622 5621 5620 5619 5618 5617 5615 5614 5612 5612 5611 5610 5610 5609 5609 5608 5607 5606 5606 5605
5613 5612 5612 5612 5611 5610 5610 5609 5609 5609 5609 5609 5610 5610 5610 5611 5612 5612 5612 5613 5612 5612 5611 5610 5609 5608 5607 5606 5604 5602 5601 5600 5599 5598 5598 5597 5597 5596 5596 5595 5594 5594 5593
5604 5604 5604 5603 5603 5602 5602 5601 5601 5601 5601 5601 5601 5601 5601 5602 5602 5603 5603 5603 5602 5602 5601 5600 5598 5597 5595 5594 5592 5590 5588 5587 5586 5586 5585 5585 5584 5584 5583 5583 5582 5581 5581
5596 5596 5596 5595 5595 5594 5594 5594 5593 5593 5593 5593 5593 5592 5592 5592 5593 5593 5593 5593 5592 5591 5590 5589 5588 5586 5584 5582 5580 5578 5577 5576 5575 5574 5574 5573 5572 5572 5571 5571 5570 5569 5569
5587 5587 5587 5587 5587 5586 5586 5586 5586 5585 5585 5585 5584 5583 5583 5583 5583 5583 5583 5582 5582 5581 5580 5578 5577 5575 5573 5571 5569 5567 5566 5565 5564 5563 5563 5562 5561 5560 5559 5559 5558 5557 5557
5579 5579 5579 5579 5579 5578 5578 5578 5578 5577 5577 5576 5575 5575 5574 5573 5573 5573 5573 5572 5571 5571 5569 5568 5566 5564 5563 5561 5559 5557 5556 5554 5554 5553 5552 5551 5550 5549 5548 5547 5547 5546 5545
5571 5571 5571 5571 5570 5570 5570 5569 5569 5569 5568 5568 5566 5566 5565 5564 5564 5564 5563 5562 5561 5560 5559 5557 5555 5554 5552 5550 5548 5547 5545 5544 5543 5542 5541 5540 5539 5538 5538 5537 5536 5535 5535
5562 5562 5562 5562 5562 5562 5562 5561 5561 5560 5560 5559 5558 5557 5556 5555 5555 5555 5554 5553 5552 5550 5549 5547 5545 5544 5542 5540 5539 5537 5535 5534 5533 5532 5531 5530 5529 5528 5527 5526 5526 5525 5525
5553 5553 5553 5553 5554 5553 5553 5553 5552 5552 5552 5551 5549 5548 5547 5546 5546 5545 5545 5544 5542 5541 5539 5538 5536 5534 5533 5531 5529 5527 5526 5525 5524 5523 5522 5520 5519 5518 5517 5516 5516 5515 5515
5544 5544 5544 5545 5545 5545 5545 5544 5544 5544 5543 5542 5541 5540 5539 5538 5537 5536 5536 5534 5533 5532 5530 5528 5527 5525 5523 5522 5520 5518 5517 5516 5515 5514 5512 5511 5510 5509 5508 5507 5506 5506 5505
5536 5536 5536 5536 5536 5536 5536 5536 5536 5535 5535 5534 5533 5532 5530 5530 5529 5528 5527 5525 5524 5523 5521 5519 5518 5516 5514 5512 5511 5509 5508 5506 5505 5505 5503 5502 5501 5500 5499 5498 5498 5497 5496
5527 5528 5528 5528 5528 5528 5528 5528 5528 5527 5526 5526 5525 5523 5522 5521 5520 5520 5519 5517 5515 5514 5512 5510 5509 5507 5506 5504 5502 5500 5499 5497 5497 5496 5495 5494 5493 5492 5491 5491 5490 5489 5488
5519 5519 5520 5520 5520 5520 5520 5520 5519 5519 5518 5517 5517 5516 5515 5514 5512 5511 5510 5508 5506 5505 5503 5502 5500 5499 5497 5496 5494 5492 5491 5489 5488 5487 5486 5485 5484 5484 5483 5483 5482 5481 5481
5511 5512 5512 5512 5512 5512 5512 5512 5511 5511 5510 5510 5509 5508 5507 5506 5505 5503 5501 5500 5498 5496 5495 5493 5491 5490 5489 5487 5486 5484 5483 5481 5480 5479 5478 5477 5476 5476 5475 5475 5474 5473 5473
5503 5503 5503 5503 5504 5504 5504 5503 5503 5503 5502 5502 5501 5500 5499 5498 5497 5495 5493 5491 5489 5487 5486 5484 5483 5481 5480 5479 5478 5476 5474 5473 5472 5471 5470 5469 5468 5468 5467 5466 5466 5465 5465